User: anonymous   Login
Location: La Chapelle
(48.3135°N, 1.3085°W)
Time: 12:37:54
(UTC+00:00)
Language:

Cosmos 1844 Rocket - Orbit

View from above orbital plane
View from above orbital plane
View from above satellite
View from above satellite

Ground track
Ground track

The orbit data is extracted from the following two-line orbital elements,

1 17974U 87041B   21138.06493369 -.00000149  00000-0 -50156-4 0  9990
2 17974  71.0046 135.0357 0013727 358.9403  58.2070 14.17273965759417
Epoch (UTC): 18 May 2021 01:33:30
Eccentricity: 0.0013727
inclination: 71.0046°
perigee height: 824 km
apogee height: 844 km
right ascension of ascending node: 135.0357°
argument of perigee: 358.9403°
revolutions per day: 14.17273965
mean anomaly at epoch: 58.2070°
orbit number at epoch: 75941

The dashed part of the orbit path shows where the satellite is in the earth's shadow,  

DLR